GFSFLT2_2pvu_pres_003.txt.gz
Presure
298 468 403 427 301 450 455 442 436 431 432 444 649 393 389 395 430 445 384 418 407 380 366 306 287 338 284
455 427 413 412 443 446 436 424 420 409 406 423 424 556 396 381 385 431 436 394 370 394 396 370 341 273 264
421 404 437 428 437 419 408 393 395 423 450 480 580 447 463 384 375 409 419 424 428 400 375 375 368 308 284
396 424 417 431 404 382 395 402 424 434 445 480 541 573 582 415 373 376 409 406 414 414 386 367 363 359 279
432 425 436 398 353 393 414 435 433 431 460 498 521 551 572 429 373 369 404 397 401 401 417 387 373 363 278
459 439 392 370 397 428 445 532 545 456 489 498 506 541 560 458 374 370 407 395 393 400 417 417 383 364 332
424 407 365 401 440 449 520 527 536 531 527 541 531 537 559 567 362 368 386 396 390 384 388 406 420 396 370
438 368 404 384 457 511 510 501 495 497 508 488 489 487 518 362 359 366 376 387 383 388 392 394 418 416 409
368 399 366 478 489 400 406 487 496 475 459 469 482 488 361 360 358 342 355 366 308 378 377 385 381 403 435
399 352 363 354 359 353 357 364 367 364 358 355 360 364 363 361 358 357 314 311 302 382 323 362 380 396 399
344 347 350 346 339 340 343 340 343 347 350 351 350 352 355 356 354 351 356 357 365 334 304 295 376 391 415
337 339 328 328 334 335 336 339 339 340 344 350 350 351 341 335 337 344 357 335 507 335 306 295 350 387 399
328 320 329 330 323 340 346 347 347 349 350 350 348 357 372 486 484 455 458 386 377 318 300 293 300 328 330
324 335 329 332 329 334 342 345 344 338 337 341 355 378 442 468 501 388 373 367 384 318 300 294 296 308 304
325 322 317 327 332 328 325 328 325 327 333 340 345 349 339 332 306 356 366 368 377 398 307 294 291 294 311
305 303 316 315 317 319 311 307 313 314 316 324 334 347 355 349 355 358 365 361 368 376 357 290 288 292 347
315 317 314 309 301 309 307 296 292 296 328 339 316 330 332 338 311 363 355 360 354 369 344 334 287 337 277

GFSFLT2_2pvu_pres_009.txt.gz
Presure
225 205 232 247 428 436 486 482 452 437 445 436 446 441 471 461 458 461 455 448 458 462 467 423 424 435 463
239 348 509 496 488 478 468 447 433 421 437 435 433 459 451 452 454 450 441 435 440 443 453 458 468 419 428
502 494 485 476 472 461 428 408 421 464 487 478 452 473 451 440 426 398 384 380 382 402 415 438 445 460 422
476 471 468 455 438 410 423 459 477 479 484 474 476 434 407 427 448 507 516 506 460 434 405 393 412 434 471
461 454 436 412 389 458 501 417 375 460 500 490 404 502 516 520 536 554 558 558 537 473 458 434 406 416 442
434 417 398 397 462 379 553 543 355 380 485 367 377 380 485 522 518 512 515 531 557 507 505 457 445 421 424
388 383 460 475 547 497 347 370 360 356 350 354 369 367 502 484 472 460 469 492 503 513 557 550 500 467 409
403 468 516 492 340 352 341 336 342 350 347 347 358 359 361 460 457 467 465 488 495 498 530 569 597 575 411
448 487 384 335 343 324 331 338 339 340 343 342 349 358 355 371 446 446 460 481 475 518 542 569 593 598 486
413 344 338 326 330 338 334 338 347 354 348 341 343 348 355 356 359 357 366 472 496 506 567 541 552 512 450
332 332 322 334 333 337 349 356 356 343 342 355 343 341 351 352 358 356 351 353 368 420 468 474 451 393 373
345 325 327 326 343 340 336 333 334 337 345 345 359 348 343 346 358 354 353 351 362 366 366 366 363 364 368
320 314 313 330 316 317 317 315 321 327 339 347 357 358 359 351 340 349 354 355 359 358 365 380 420 414 404
307 310 325 334 319 312 308 314 336 330 336 348 346 367 374 468 419 333 332 343 348 357 362 364 366 371 395
316 315 312 314 307 304 300 317 348 328 334 336 355 362 412 456 433 423 398 342 341 323 289 333 373 370 369
311 301 292 295 298 300 298 296 304 329 324 329 338 354 364 320 363 361 380 375 316 312 384 344 331 357 361
307 295 290 297 288 291 293 301 293 292 342 328 316 347 356 358 358 368 375 371 367 373 347 314 294 288 280

GFSFLT2_2pvu_pres_012.txt.gz
Presure
126 131 132 220 137 65 248 419 488 479 388 465 467 467 456 453 473 465 459 454 464 462 511 496 459 438 422
218 222 216 496 507 496 482 473 469 456 446 442 435 429 421 426 476 500 516 505 480 454 472 476 478 431 430
332 506 500 492 481 468 456 443 422 410 407 406 449 524 516 474 402 407 405 428 474 478 465 457 458 463 464
484 470 461 453 429 423 404 384 399 445 545 540 537 533 478 463 387 384 394 527 491 440 412 418 434 455 456
497 513 508 492 475 427 407 479 534 494 493 406 368 384 390 380 373 378 386 389 520 560 568 566 548 428 396
520 579 578 562 553 507 532 457 426 372 354 360 360 353 357 358 365 369 371 498 490 493 508 528 578 567 489
523 522 523 498 459 436 403 349 342 353 331 331 359 351 353 354 359 363 397 474 477 484 489 487 499 528 544
483 467 448 438 405 342 331 334 330 342 342 342 352 347 346 351 353 359 364 450 446 453 487 477 502 509 533
430 443 369 339 326 325 324 339 345 360 353 346 351 356 347 346 353 351 352 370 445 452 487 493 494 514 528
361 337 331 325 330 339 350 344 340 345 348 355 351 355 356 340 353 351 352 354 367 503 520 528 552 548 558
359 332 324 324 337 329 324 323 326 333 334 341 346 356 360 346 351 344 347 357 355 395 446 474 543 574 587
322 313 311 321 320 318 318 317 325 333 330 344 343 355 351 347 340 349 344 349 354 356 395 441 472 561 607
305 309 320 328 316 307 303 322 333 324 335 353 349 356 347 433 328 343 347 346 345 360 357 373 422 448 471
311 314 313 316 320 307 308 327 314 324 327 362 360 357 478 469 328 328 341 346 345 350 372 393 362 379 414
310 305 299 298 297 299 300 305 298 342 328 329 353 362 371 468 468 328 325 337 340 346 353 370 406 391 363
305 301 296 289 289 295 292 283 298 302 344 335 360 359 365 361 363 399 339 321 332 336 351 355 369 394 403
306 298 288 283 293 284 284 283 288 295 300 341 341 357 360 299 372 349 364 329 346 386 290 353 358 368 389

GFSFLT2_2pvu_pres_015.txt.gz
Presure
215 157 182 161 241 250 437 512 500 491 482 470 466 464 467 466 69 459 455 453 454 454 455 458 467 474 482
237 244 249 356 510 536 528 523 517 512 497 470 447 435 432 418 76 412 489 498 511 504 493 477 472 471 463
334 347 515 525 529 548 547 546 592 575 560 542 538 447 415 456 543 535 537 543 543 475 452 431 420 493 517
536 528 506 531 529 533 551 543 544 530 518 494 495 503 495 458 404 373 370 382 389 394 390 393 464 505 419
510 512 528 507 481 473 476 466 456 453 475 459 423 371 363 365 361 353 353 354 359 363 369 382 390 402 440
507 481 459 451 440 430 432 438 394 450 359 342 350 348 342 340 347 348 350 354 356 364 372 375 386 496 512
461 441 438 421 413 369 354 345 340 336 329 338 357 351 358 363 363 358 352 351 357 363 370 459 452 470 497
429 423 432 343 331 325 321 333 354 356 348 345 352 354 360 356 353 362 349 350 354 366 362 443 464 466 475
384 347 333 332 320 330 338 333 335 335 331 340 341 339 355 349 358 349 344 350 358 352 356 499 502 523 518
353 365 330 317 327 324 316 319 320 324 336 335 336 353 355 374 358 337 347 349 349 361 366 436 461 479 513
350 323 315 325 328 317 308 304 309 325 323 336 348 368 355 357 343 335 347 350 351 367 360 419 451 465 489
307 321 316 323 318 308 310 308 319 306 334 331 362 366 415 362 433 332 345 353 354 365 364 376 443 459 487
318 307 317 305 297 298 301 303 297 293 344 333 363 363 468 461 416 326 344 355 356 362 391 365 438 466 497
298 313 302 299 291 288 294 300 290 285 342 339 364 365 383 447 397 325 331 348 355 357 385 362 407 473 461
313 308 300 293 289 290 287 289 277 279 318 341 361 360 364 371 405 327 327 336 335 357 374 398 368 445 452
311 301 302 296 290 289 287 286 280 283 294 325 354 367 385 356 385 348 326 327 342 358 362 387 370 375 424
294 311 301 300 294 286 289 282 277 292 298 311 329 377 364 361 349 362 328 348 342 354 357 375 384 365 368

GFSFLT2_2pvu_pres_018.txt.gz
Presure
211 228 237 205 264 341 352 466 497 556 553 546 546 552 563 590 541 529 522 510 481 470 470 466 470 471 479
92 244 313 321 331 492 514 534 503 479 499 511 522 537 554 573 595 591 537 524 505 456 434 339 407 415 421
292 319 321 499 558 545 486 468 467 468 476 469 471 485 493 497 508 514 518 522 507 512 510 528 537 541 562
319 350 636 634 493 464 452 457 457 452 367 367 380 384 394 404 409 410 406 406 402 400 383 383 386 393 401
499 629 522 460 441 439 451 397 348 339 341 341 346 345 353 352 352 350 351 351 351 353 355 359 363 368 374
512 472 426 424 438 398 338 345 328 353 354 356 357 356 359 364 365 368 366 362 361 364 362 355 360 364 365
434 409 428 379 380 338 336 329 339 346 327 339 339 351 360 352 351 355 368 366 365 371 364 356 355 363 366
393 392 396 372 338 319 310 332 339 332 319 328 333 330 348 349 359 359 362 366 388 362 353 361 355 362 372
348 345 370 331 311 329 327 316 316 323 344 337 333 334 361 365 362 361 371 380 350 350 357 359 358 362 360
411 366 323 313 323 325 313 305 305 303 339 301 356 341 366 369 350 353 357 349 342 351 349 348 355 370 371
351 333 314 305 317 298 302 289 296 304 303 289 347 375 376 476 456 449 353 332 347 346 347 359 393 365 436
330 316 310 306 308 300 291 286 300 292 292 293 354 370 376 453 447 405 329 332 343 354 353 391 366 416 441
328 316 314 309 306 301 284 289 287 288 297 293 341 372 382 413 411 337 326 334 342 351 363 402 395 432 431
326 323 316 308 306 302 292 289 288 292 290 298 331 373 390 366 401 332 323 333 348 349 394 363 433 441 441
290 294 302 314 305 304 293 286 285 285 288 289 319 370 390 363 385 324 328 349 347 349 398 376 435 421 435
286 290 287 288 282 305 300 289 290 284 284 287 291 351 386 310 360 353 372 345 344 356 389 377 399 395 399
339 308 292 299 299 281 277 301 294 289 281 285 285 335 365 376 343 338 325 339 345 359 387 364 378 381 380

GFSFLT2_2pvu_pres_021.txt.gz
Presure
231 202 209 228 237 252 319 359 559 636 574 526 504 498 502 499 487 487 489 503 546 587 583 562 536 518 513
202 222 187 236 271 336 523 518 493 477 473 479 486 410 390 373 369 372 397 477 490 521 581 586 529 513 507
225 227 245 311 532 520 487 457 451 467 450 370 369 357 345 352 342 356 353 354 375 447 483 505 543 526 515
238 277 400 524 486 441 427 442 439 388 348 347 338 353 353 353 353 353 358 368 353 355 371 400 456 482 494
297 524 512 444 418 409 369 352 369 351 322 330 349 343 341 344 353 347 348 349 357 370 356 354 365 373 388
546 505 431 409 404 343 385 354 326 344 334 340 332 343 351 346 334 341 351 347 354 353 366 376 366 353 352
540 426 404 435 413 371 341 326 331 345 319 320 318 331 320 361 368 354 379 378 363 356 356 364 365 367 375
414 398 423 411 368 340 314 305 328 326 304 304 313 317 306 381 389 388 377 356 360 364 394 390 357 356 355
387 395 396 369 335 312 312 318 307 311 300 310 304 308 340 392 397 435 434 367 357 353 342 338 348 348 350
369 372 362 342 331 319 304 309 296 303 302 302 299 305 320 410 452 447 443 432 339 333 342 345 349 349 353
351 351 345 337 334 330 315 306 297 299 294 298 295 313 354 395 402 419 392 326 330 337 342 347 353 357 371
346 335 317 316 333 326 325 311 298 296 294 299 294 301 347 390 336 403 319 324 327 333 336 347 380 409 381
330 303 292 292 290 293 325 315 308 294 296 294 292 300 338 380 368 402 326 319 322 330 358 394 368 422 427
300 297 293 293 294 292 293 304 316 302 294 295 290 296 337 391 352 341 374 322 345 350 385 361 406 403 410
315 357 355 325 316 297 300 292 282 311 304 291 286 294 334 378 338 345 340 340 343 372 363 386 384 391 409
415 416 456 453 385 329 299 306 292 299 304 292 285 293 335 394 336 342 329 337 345 377 391 376 381 383 399
402 404 420 420 398 382 334 281 262 278 305 290 285 293 338 384 343 331 318 336 359 378 411 371 377 373 378

GFSFLT2_2pvu_pres_024.txt.gz
Presure
232 261 253 253 231 219 219 232 234 250 340 507 476 486 470 447 435 425 422 421 423 427 428 453 463 515 490
259 142 226 211 225 228 237 253 322 505 460 444 453 267 393 387 372 358 359 359 361 355 355 357 358 368 389
227 209 208 223 234 240 298 509 469 438 421 448 363 374 358 343 338 339 344 345 353 354 363 374 382 382 361
202 216 227 235 251 334 481 436 419 420 430 362 360 351 338 344 331 329 347 341 336 343 355 359 364 370 378
221 233 237 295 342 447 425 425 425 419 370 339 339 344 337 325 326 327 324 322 370 381 339 349 360 354 359
237 253 329 522 437 406 426 410 377 372 344 326 339 322 314 318 311 316 318 408 408 398 373 383 375 374 368
285 334 521 436 415 390 392 374 356 348 326 315 320 313 316 307 308 318 311 477 472 424 382 372 364 364 365
437 497 447 404 386 384 364 339 332 327 327 309 315 310 308 300 304 316 410 448 446 450 399 353 354 360 372
472 436 399 373 368 367 347 334 323 313 323 310 313 305 306 299 301 335 405 404 398 387 385 363 345 339 335
414 393 372 364 363 349 342 341 327 312 319 307 312 300 300 301 299 337 386 416 403 336 332 323 331 344 346
373 350 345 332 341 307 306 294 294 313 320 308 306 305 295 287 310 338 382 373 363 331 330 326 332 339 343
332 324 315 313 309 308 305 300 302 288 279 319 306 300 297 290 309 331 367 362 351 327 325 330 345 385 403
318 384 446 440 428 406 323 315 315 302 292 280 313 305 293 285 308 367 354 340 359 319 308 368 386 367 396
372 370 397 422 418 432 466 412 393 330 301 281 302 309 292 288 316 378 359 342 327 345 367 375 368 380 379
374 258 340 405 413 428 427 412 382 394 313 293 294 312 292 299 322 381 352 326 339 358 373 393 366 375 377
278 350 369 358 391 403 397 390 378 404 284 267 300 297 289 308 324 369 340 302 345 370 365 412 373 374 375
356 358 352 357 362 389 391 373 390 404 278 265 310 297 295 318 378 361 294 337 359 374 411 392 367 378 399

GFSFLT2_2pvu_pres_027.txt.gz
Presure
197 206 210 218 288 289 267 232 194 216 228 238 246 259 425 467 449 478 447 411 394 390 384 383 396 415 421
207 214 246 241 272 260 201 217 227 238 245 262 479 457 443 436 434 404 378 371 359 359 360 362 367 366 367
239 264 284 238 215 214 225 229 243 258 316 458 435 441 442 409 380 361 351 342 338 346 341 342 347 361 358
262 261 185 217 218 224 235 249 294 482 431 422 439 408 384 367 349 333 340 337 333 327 323 325 327 333 354
254 226 227 221 228 241 254 515 458 414 414 399 388 369 361 345 325 330 321 312 311 320 325 335 337 340 454
222 217 226 233 248 260 490 435 405 391 391 382 372 352 345 331 323 315 305 320 317 317 317 464 477 466 475
217 229 240 248 360 468 421 397 377 366 380 357 346 342 331 328 315 312 312 311 309 306 351 430 419 440 394
228 239 253 454 434 414 390 377 355 354 370 351 340 333 319 328 315 312 306 304 305 305 422 417 393 379 393
242 324 428 401 372 354 335 335 325 348 349 305 302 334 320 327 314 306 305 303 299 332 399 402 398 338 338
427 402 376 355 340 346 344 352 320 306 311 301 300 303 307 319 319 311 299 303 288 336 386 379 333 338 320
385 362 344 358 397 391 387 395 427 415 325 312 301 304 303 288 315 322 295 299 316 343 381 371 353 332 332
352 350 375 362 365 364 384 304 385 466 485 403 309 307 304 294 296 317 307 286 327 348 364 336 342 344 363
355 357 377 383 378 365 363 376 420 434 449 439 409 295 313 287 296 316 292 308 330 389 343 320 340 382 402
343 349 346 371 257 376 373 366 404 402 418 407 402 390 315 279 302 302 291 313 361 342 314 336 388 407 378
344 340 310 296 382 379 377 365 403 390 383 388 416 322 282 292 308 290 312 342 355 296 351 395 413 371 368
331 308 310 400 386 376 378 364 395 384 379 392 363 277 280 304 296 313 333 353 290 372 391 409 406 372 369
254 316 310 405 391 375 374 364 393 385 394 395 281 274 305 299 313 330 362 283 380 399 397 389 389 385 368

GFSFLT2_2pvu_pres_030.txt.gz
Presure
188 184 186 194 195 197 173 214 240 262 304 244 225 153 197 231 242 251 266 408 443 432 444 445 436 425 408
191 189 194 198 145 209 227 247 265 289 232 220 234 232 248 256 351 457 464 451 435 420 412 401 384 365 368
193 197 190 162 216 235 251 280 218 227 227 237 248 256 449 435 437 428 413 396 387 382 363 355 349 344 340
133 148 213 220 244 259 224 227 223 236 246 252 367 439 420 412 407 386 369 361 356 345 334 331 335 328 327
206 215 226 243 261 232 225 225 238 251 265 442 417 402 395 389 388 366 350 345 335 326 324 318 313 310 316
216 228 248 292 225 224 234 242 248 338 389 364 364 374 374 372 370 360 341 335 324 321 319 311 308 315 317
243 269 285 227 223 236 250 258 380 366 364 343 328 328 325 367 369 356 340 329 333 325 319 317 315 312 309
238 247 228 231 244 254 315 373 356 385 392 416 396 344 331 321 351 309 318 334 333 323 316 314 311 304 303
226 236 236 252 258 372 368 389 371 386 398 393 402 394 402 277 317 316 300 321 331 322 317 308 305 295 337
235 247 255 276 372 376 370 364 361 389 393 391 386 455 475 437 333 319 302 306 294 318 316 307 293 320 346
252 255 380 362 363 355 364 353 345 390 398 392 397 434 478 448 370 330 311 303 291 307 311 291 302 336 393
342 370 358 355 352 354 347 335 355 304 394 384 416 417 425 427 408 334 316 308 289 307 299 297 330 366 359
361 352 348 343 351 345 330 264 401 396 395 382 404 401 400 397 401 387 323 306 303 313 302 324 346 359 322
348 343 338 336 335 346 346 420 403 380 384 404 392 388 376 401 393 374 310 309 311 312 324 357 305 350 407
335 329 330 332 302 337 408 408 396 386 373 399 398 412 386 366 315 293 314 303 311 324 337 317 395 420 397
324 325 328 305 391 435 429 401 389 379 399 381 402 364 302 289 288 310 313 326 369 292 389 419 402 374 357
322 321 335 408 458 455 435 404 393 387 399 389 317 297 282 306 303 321 364 289 394 421 415 360 353 343 353

GFSFLT2_2pvu_pres_033.txt.gz
Presure
234 233 234 235 229 222 220 217 195 198 193 201 145 193 219 229 293 243 209 227 229 248 265 288 435 464 463
221 244 249 244 239 236 228 190 191 172 143 207 213 227 255 307 216 228 226 261 283 441 444 448 454 451 445
222 238 249 245 237 192 193 198 186 208 215 225 235 294 226 223 234 267 305 441 426 419 410 407 413 405 400
249 249 243 202 195 166 198 206 212 225 233 282 268 219 238 268 306 390 379 366 354 396 385 381 371 370 364
242 206 168 185 203 210 217 221 225 269 263 215 238 263 281 386 379 373 366 349 336 384 369 360 351 341 342
198 200 204 212 218 222 233 298 267 218 261 257 279 377 386 392 387 414 421 392 346 323 361 352 340 334 325
209 215 218 228 264 291 263 231 243 260 278 383 378 366 362 362 399 410 403 419 352 328 357 347 336 326 323
227 283 293 287 243 269 249 264 266 358 375 376 359 359 352 362 410 405 408 412 404 331 324 311 326 332 329
280 272 268 252 251 263 264 374 372 367 362 366 358 350 343 393 400 411 286 494 415 332 311 308 322 341 328
256 239 255 263 269 342 387 369 367 356 359 355 348 406 332 382 388 404 447 485 488 332 311 306 310 303 323
250 261 303 400 386 373 362 364 354 348 351 355 356 423 401 390 393 406 427 457 462 331 313 307 309 301 317
385 416 390 369 355 353 352 342 346 347 347 413 429 404 389 401 401 401 419 432 434 330 313 305 310 307 317
398 376 358 351 347 342 339 340 336 394 445 437 411 389 403 394 387 395 398 414 411 298 309 304 303 314 303
370 351 342 337 334 338 333 376 468 457 438 416 392 402 398 393 402 405 383 376 369 318 309 314 309 318 332
346 337 328 333 333 354 452 446 461 465 409 391 401 409 378 372 313 311 286 313 317 315 317 327 355 289 351
329 330 331 329 439 441 461 463 466 434 390 393 394 363 308 301 284 311 314 322 362 333 294 403 424 382 362
330 323 373 434 468 472 488 465 455 410 390 358 311 300 291 309 321 359 293 308 427 416 383 363 356 359 349

GFSFLT2_2pvu_pres_036.txt.gz
Presure
246 244 251 254 256 261 264 264 262 229 231 230 234 256 261 258 238 192 194 202 205 212 215 179 232 248 285
278 271 264 261 264 261 254 254 253 241 228 231 252 248 199 196 196 206 215 216 224 228 238 254 280 269 249
259 249 240 238 237 238 237 233 228 233 248 244 200 199 204 210 215 222 229 250 287 271 265 257 235 273 392
232 230 229 229 236 234 241 238 214 200 202 200 206 213 224 236 278 281 273 265 264 228 313 397 403 386 374
234 232 229 226 207 196 200 201 202 212 218 273 288 277 264 257 256 270 293 359 398 390 375 377 394 394 382
202 194 197 203 203 209 214 216 279 268 263 246 247 223 273 301 391 382 381 384 382 372 362 360 415 386 376
210 227 277 280 279 264 254 246 241 235 248 270 321 407 391 375 368 365 368 372 369 365 345 375 399 394 369
259 267 258 248 248 242 232 254 266 370 429 412 391 372 364 352 348 354 364 371 451 438 423 352 408 402 371
245 195 240 229 244 260 268 439 431 404 382 382 364 353 351 335 336 356 372 442 436 422 409 434 473 394 379
237 222 243 266 279 460 437 403 386 374 358 355 345 346 336 333 351 426 426 422 418 422 426 443 480 408 384
246 271 362 428 422 401 392 381 363 352 351 344 344 344 408 480 430 406 404 401 422 422 420 432 450 455 363
370 478 404 394 390 380 365 355 347 353 352 372 475 482 466 423 405 389 409 416 394 395 411 421 424 408 327
439 414 380 379 366 354 347 346 350 454 462 473 492 449 410 396 400 392 408 391 387 387 397 397 403 333 313
387 371 359 351 345 345 351 462 464 473 471 484 430 401 401 398 369 365 343 337 355 365 366 369 322 316 311
356 347 339 330 342 440 445 505 517 497 466 413 400 378 362 331 309 293 287 296 317 314 320 323 318 314 312
336 335 333 418 401 427 479 488 431 403 381 356 334 314 299 286 313 362 387 370 318 321 432 422 430 406 427
332 329 217 407 373 348 335 330 328 323 311 305 302 314 329 376 293 389 329 325 320 319 316 317 315 318 320

GFSFLT2_2pvu_pres_039.txt.gz
Presure
243 225 230 230 240 259 251 252 251 249 246 246 249 248 248 249 251 257 258 257 253 243 234 231 253 259 259
221 236 241 265 254 246 240 235 231 230 228 229 230 230 229 229 230 230 232 246 248 253 251 229 201 200 207
226 248 256 235 232 229 230 221 224 222 225 227 227 226 225 218 214 213 210 207 206 210 206 209 216 220 228
261 224 233 223 233 219 222 217 210 204 200 196 195 199 205 205 232 232 213 238 265 247 266 265 266 268 268
232 235 231 226 205 195 189 192 210 247 243 254 253 251 251 250 249 251 252 256 403 295 382 372 245 353 346
217 199 187 195 256 260 280 247 237 240 245 245 247 248 242 245 247 437 424 416 410 401 389 377 370 367 367
237 248 252 252 249 238 236 245 240 247 267 263 356 474 447 421 399 389 386 386 381 374 368 365 358 350 349
250 250 237 238 231 245 248 259 260 292 402 463 433 410 384 373 366 360 360 366 366 361 353 346 349 395 440
232 232 225 231 249 256 267 321 409 453 397 396 392 378 363 349 343 343 350 345 351 355 372 465 439 414 402
228 239 244 253 271 348 464 457 422 403 381 380 359 353 338 333 333 345 367 414 488 491 451 418 399 402 403
241 248 293 420 475 452 424 407 389 368 360 355 373 425 497 501 479 456 462 465 446 420 428 388 392 397 402
372 512 469 441 417 402 376 354 349 389 497 518 539 520 486 472 452 425 423 400 388 387 394 399 407 412 417
460 432 407 390 367 341 342 441 419 499 534 514 449 428 413 412 408 391 374 358 351 366 371 373 380 385 403
390 371 354 340 340 451 405 404 371 376 371 387 371 368 356 332 321 310 306 303 301 296 298 313 339 362 366
343 330 331 337 398 340 335 330 325 323 320 306 302 301 299 297 340 335 388 394 398 386 388 388 408 350 318
340 334 374 368 343 325 318 312 307 304 301 303 333 381 395 404 329 328 327 321 319 318 316 318 324 330 342
336 324 280 221 317 310 306 302 303 365 374 377 373 359 324 319 307 306 301 301 296 295 292 295 296 292 306

GFSFLT2_2pvu_pres_042.txt.gz
Presure
228 228 245 232 225 234 239 207 228 239 243 240 227 222 225 222 227 230 234 234 233 232 231 232 233 240 247
224 244 246 222 231 216 250 230 231 242 220 220 231 238 214 222 220 234 227 227 225 227 227 223 231 235 239
237 264 229 227 211 231 230 243 223 224 230 254 235 220 209 197 194 194 197 198 198 214 212 208 206 214 221
254 234 233 230 238 262 219 215 219 219 192 194 222 247 248 251 243 247 254 255 253 264 252 252 236 244 245
229 236 233 238 231 203 185 193 260 201 241 237 235 233 249 257 260 269 279 292 343 478 493 477 465 457 258
229 230 207 191 249 255 257 227 219 227 236 244 252 251 254 270 284 320 475 462 441 425 409 405 401 398 396
204 199 234 255 251 221 225 234 245 243 228 190 259 276 353 473 448 431 416 410 405 403 394 384 376 371 363
242 259 239 227 231 238 245 239 248 248 279 413 473 452 425 403 394 391 385 381 379 374 362 351 345 341 340
217 226 234 229 242 239 246 251 322 468 441 438 401 383 372 364 359 361 369 378 386 394 401 405 409 494 496
178 229 236 240 244 249 333 447 430 405 386 372 357 509 585 556 527 504 497 495 498 501 502 497 444 424 415
230 234 242 251 352 432 412 390 374 360 385 425 425 436 429 452 452 467 478 460 425 407 406 409 415 420 420
238 249 331 418 398 376 365 356 428 384 352 344 346 341 338 348 356 360 360 358 349 344 346 352 372 380 386
365 361 362 350 363 359 356 383 359 346 330 321 321 319 313 313 315 312 307 306 306 311 318 310 317 315 330
359 347 355 316 354 370 369 332 327 317 323 310 303 306 314 386 394 398 402 344 342 337 333 333 334 411 396
349 353 351 344 347 371 313 284 276 304 354 375 389 392 381 330 327 322 313 313 310 307 310 310 308 315 324
353 348 335 336 286 351 234 315 303 362 369 391 376 321 318 311 305 291 286 283 283 281 280 288 315 310 298
350 332 331 325 395 334 314 302 355 362 389 325 317 306 297 287 278 280 284 312 309 302 300 298 298 313 319

GFSFLT2_2pvu_pres_045.txt.gz
Presure
220 210 206 221 239 245 240 232 227 223 250 233 237 241 235 243 261 231 236 217 219 225 225 230 235 227 223
216 221 226 242 242 242 215 219 221 238 237 245 248 253 231 246 262 205 202 201 197 197 200 200 202 242 250
229 242 243 241 230 210 222 231 240 244 237 216 226 239 261 258 243 241 236 245 236 234 237 245 241 234 238
248 244 240 225 215 222 234 236 242 225 228 240 255 240 230 235 198 225 251 259 265 278 292 296 302 312 317
249 231 223 215 225 238 233 234 216 235 249 262 226 232 241 249 256 261 271 282 299 311 485 535 527 522 514
219 219 229 248 237 237 235 245 246 226 220 230 240 250 250 257 267 282 309 478 472 460 452 444 436 428 421
226 229 234 228 237 251 252 228 209 227 242 238 247 253 261 284 387 436 428 416 399 384 383 371 361 360 365
236 229 236 247 248 221 220 225 237 248 253 248 261 360 417 395 385 442 536 552 550 541 529 512 483 441 394
232 246 247 180 220 228 236 242 250 250 263 390 386 378 361 408 391 396 428 434 426 447 452 471 501 519 514
227 176 216 230 237 238 246 249 260 383 368 372 363 388 360 353 352 350 334 336 343 384 408 416 426 432 433
220 237 231 239 249 252 260 376 376 362 330 335 360 346 343 333 308 332 316 319 314 317 314 320 328 336 350
244 238 247 252 275 362 356 353 346 370 378 353 336 329 274 325 321 322 374 424 412 401 399 375 371 416 390
244 251 362 358 334 317 363 362 358 384 356 334 324 261 389 398 383 391 355 339 325 322 320 324 321 325 336
359 346 324 310 316 355 354 340 377 358 340 324 227 405 407 398 335 329 312 301 301 293 301 303 301 303 307
323 311 319 357 356 347 337 331 370 333 317 364 392 333 326 315 307 296 290 288 284 305 309 306 311 306 307
307 318 349 356 348 334 321 350 361 320 327 371 340 326 303 289 284 287 282 275 286 295 299 300 321 336 333
354 346 339 349 349 317 324 362 332 306 369 349 317 295 286 274 278 268 262 294 299 314 314 314 305 303 304

GFSFLT2_2pvu_pres_048.txt.gz
Presure
229 224 204 200 180 224 225 223 221 232 229 245 255 230 218 231 234 248 234 239 227 220 219 221 219 254 253
244 242 238 234 239 230 169 209 237 247 255 256 222 236 232 244 238 242 204 204 244 246 265 234 234 228 235
132 231 226 229 222 229 241 233 234 253 251 226 228 232 243 238 221 223 247 247 224 219 226 223 220 230 254
232 239 246 261 261 267 253 233 246 229 232 220 238 228 227 246 256 238 216 229 237 248 251 260 263 276 282
249 270 276 266 260 260 237 225 225 230 234 239 238 248 256 234 238 240 233 245 254 258 271 277 305 413 443
260 267 265 263 254 244 234 226 236 238 229 244 252 224 233 234 248 245 255 264 274 289 399 422 484 567 535
258 246 235 231 233 229 237 236 237 245 242 197 236 237 242 247 259 267 279 323 370 379 397 387 413 443 560
219 223 231 237 227 223 231 249 247 232 237 239 238 247 256 269 312 394 388 393 388 368 358 354 347 341 421
222 217 220 229 241 227 238 236 244 235 234 247 261 263 278 383 382 389 389 372 357 343 332 253 326 322 326
226 231 237 240 239 238 237 258 236 250 261 266 350 359 325 325 373 365 362 353 332 241 319 315 385 384 365
244 220 207 255 238 241 246 261 262 276 355 334 314 350 375 359 345 349 347 413 418 399 432 419 393 354 350
249 237 242 238 242 254 309 356 342 331 318 347 352 361 351 337 330 396 416 359 338 329 318 315 313 310 314
249 241 355 350 347 346 339 325 318 311 372 358 333 349 335 326 392 415 330 333 304 300 298 296 311 313 305
365 360 350 339 328 320 309 357 357 360 353 327 377 332 318 391 329 316 303 293 297 289 291 305 300 297 296
344 334 326 319 308 345 352 348 350 338 327 375 336 316 379 329 302 293 287 284 283 277 307 303 306 306 323
329 319 308 305 334 350 342 356 315 329 329 352 310 361 334 293 283 277 281 279 285 292 293 289 297 295 308
314 303 313 336 348 305 366 310 330 328 347 311 345 367 300 294 275 267 274 297 292 291 287 284 290 289 295

GFSFLT2_2pvu_pres_051.txt.gz
Presure
223 224 201 221 217 238 257 241 223 233 234 230 236 241 239 237 233 225 236 260 248 231 229 230 241 229 234
227 189 212 226 246 207 140 230 236 209 261 243 224 239 206 232 243 280 245 236 235 245 240 234 229 233 237
152 241 222 231 226 187 230 229 238 244 246 250 254 288 287 275 263 248 228 226 238 217 227 234 243 254 243
248 243 242 233 160 234 240 242 244 254 252 250 281 271 258 254 249 240 240 229 236 244 255 241 227 235 244
256 252 247 248 239 251 254 252 252 270 264 259 238 237 238 237 236 240 248 248 244 230 232 237 219 225 232
246 253 260 257 273 268 271 265 271 226 225 229 243 234 230 243 243 260 206 232 226 223 236 256 261 277 285
264 263 263 265 259 259 233 226 235 238 232 227 233 243 251 248 239 236 251 239 242 258 275 388 380 403 397
234 226 225 228 229 235 230 225 230 239 242 247 216 258 252 238 247 254 259 273 288 368 399 388 374 367 360
229 229 218 222 237 240 255 256 259 256 260 260 235 242 236 261 266 269 353 369 372 384 371 359 348 357 405
243 246 243 247 244 226 230 243 240 243 247 243 249 272 354 353 356 355 347 395 379 358 359 435 417 412 242
229 175 237 237 234 243 247 247 303 379 379 367 352 346 339 325 346 370 364 373 353 419 384 355 335 322 318
236 181 210 257 291 334 369 367 362 354 346 337 325 318 351 352 352 342 375 348 373 335 328 312 299 296 300
160 299 362 395 372 360 351 341 332 329 325 320 354 351 357 337 326 367 336 386 330 306 302 300 297 293 290
426 395 373 359 347 337 330 322 315 325 339 356 348 353 324 333 358 321 378 322 304 298 290 291 288 309 303
378 364 347 337 328 318 308 314 328 347 348 365 312 344 332 356 315 375 312 314 288 285 284 300 307 301 292
358 338 327 319 307 299 318 316 338 344 306 248 307 324 359 317 369 317 296 285 286 288 301 290 287 291 290
337 322 310 300 292 312 312 328 348 309 246 241 334 338 306 322 344 281 280 276 281 303 280 279 291 308 279

GFSFLT2_2pvu_pres_054.txt.gz
Presure
220 223 227 225 225 223 213 212 186 217 225 230 247 254 217 238 238 241 231 256 250 257 222 206 297 277 265
221 219 214 218 209 212 212 213 152 229 216 251 252 243 237 134 235 244 253 245 262 240 268 273 271 261 265
228 225 223 221 223 227 229 124 255 252 245 235 233 234 236 242 247 254 258 257 257 263 266 255 255 251 245
251 254 255 261 271 263 250 241 236 234 244 251 249 248 246 254 262 255 276 280 275 236 236 234 234 233 237
237 246 247 243 244 245 244 253 261 263 265 275 271 275 272 276 279 273 248 237 230 237 237 242 246 250 249
231 243 244 243 250 255 252 261 252 274 260 275 268 262 254 236 238 245 245 253 253 252 253 250 241 229 228
242 247 258 268 278 272 264 256 245 230 231 240 240 242 251 259 264 257 253 252 252 253 255 249 246 251 240
259 255 237 222 225 229 231 230 236 241 243 245 243 241 246 250 252 247 242 244 251 254 244 288 351 386 378
228 225 231 232 243 237 240 239 242 244 248 246 243 240 194 245 266 274 298 311 373 366 366 366 381 383 372
232 237 241 236 231 244 240 240 243 240 209 182 274 278 305 317 368 369 368 363 357 349 381 364 373 355 435
228 230 246 176 236 213 326 315 174 182 306 297 296 315 359 345 337 343 342 355 383 376 347 345 363 382 343
239 248 203 160 171 288 237 349 379 370 367 359 347 340 334 331 321 327 350 361 372 338 367 375 327 333 313
331 299 278 266 372 391 380 363 352 345 340 336 326 321 322 332 342 341 352 347 338 374 333 336 329 306 290
273 272 390 362 389 365 347 334 326 321 318 315 321 324 335 344 356 326 323 327 359 332 382 312 303 286 288
270 384 349 382 360 339 323 313 305 304 318 319 335 356 349 312 279 240 326 380 321 373 320 288 284 272 282
397 368 339 335 345 329 315 300 306 314 316 313 341 316 304 305 237 291 373 314 373 308 289 277 308 296 284
385 361 308 323 340 326 316 294 292 310 314 305 335 312 297 327 228 360 330 365 295 293 281 307 291 296 285

GFSFLT2_2pvu_pres_057.txt.gz
Presure
246 241 229 237 231 227 228 230 224 203 213 216 216 215 214 217 180 217 219 220 221 230 252 154 243 245 246
250 242 253 253 240 237 231 218 229 231 203 220 203 219 216 127 218 219 217 229 245 141 244 245 235 251 239
246 245 235 238 230 237 237 239 221 223 219 219 222 219 222 221 230 234 252 253 204 249 255 255 249 247 246
263 248 232 238 237 238 229 230 231 232 231 235 243 252 252 263 243 252 244 268 279 270 260 257 264 275 275
264 258 248 246 240 230 220 227 234 231 244 250 243 256 245 245 252 252 255 271 274 279 245 241 234 229 227
266 261 248 242 239 238 237 240 244 234 231 246 246 266 289 286 283 238 239 239 239 242 242 242 244 247 251
263 259 255 256 255 255 243 252 267 276 260 265 235 239 242 239 236 238 240 241 242 244 242 243 247 246 246
233 231 240 229 229 229 229 231 231 232 231 235 236 243 244 247 201 239 250 247 231 215 266 266 279 282 246
231 233 234 235 234 237 236 237 239 239 242 253 250 250 252 259 286 200 290 322 321 318 318 307 301 349 370
232 227 224 241 234 237 240 242 274 293 338 332 327 315 191 283 284 295 312 380 377 371 368 360 355 353 359
235 226 237 251 241 265 346 324 170 277 321 334 393 390 379 364 357 360 358 355 354 353 346 340 351 368 357
243 234 246 250 282 350 297 273 341 391 396 377 360 354 348 339 327 327 333 333 335 341 361 362 369 338 348
246 240 258 284 343 291 269 379 354 381 361 348 336 325 318 314 310 318 318 338 352 354 379 325 326 357 339
246 261 289 321 272 279 375 357 337 357 342 329 319 309 306 311 305 316 352 351 323 314 305 317 387 341 339
268 292 311 263 279 372 346 315 351 343 336 325 309 302 306 314 302 327 315 311 307 254 240 370 329 352 307
290 310 255 280 344 313 328 299 299 334 333 329 317 293 297 319 302 327 315 304 251 237 320 321 367 313 289
311 259 297 352 328 304 311 305 296 294 338 329 332 312 287 300 304 333 317 306 326 334 325 358 315 279 273

GFSFLT2_2pvu_pres_060.txt.gz
Presure
277 255 257 250 242 244 242 241 237 236 215 224 223 211 217 215 219 216 221 225 216 218 208 214 218 212 219
265 264 259 257 268 260 245 242 237 234 232 220 226 228 220 214 213 221 213 226 210 222 215 215 224 219 153
275 269 262 261 253 261 257 249 252 234 236 237 238 230 230 226 227 222 221 223 220 227 219 222 230 216 228
289 274 264 252 249 238 250 242 261 247 238 226 238 230 236 238 240 237 236 231 226 230 229 234 242 250 257
351 315 279 262 251 250 242 249 239 240 238 221 229 244 241 239 232 234 230 229 230 228 232 241 246 265 274
248 254 312 303 292 266 270 263 255 247 243 250 254 248 243 242 243 244 243 250 259 261 251 245 232 233 245
230 236 238 237 236 232 231 234 236 245 244 254 231 234 236 237 239 239 241 245 246 244 242 241 242 243 243
219 220 225 220 222 221 226 229 228 225 229 234 238 228 227 227 231 232 251 253 252 252 252 241 161 170 257
225 218 216 222 219 221 223 236 239 237 221 244 250 253 254 258 268 222 168 306 307 303 303 306 305 304 299
210 237 224 221 227 251 251 241 247 242 247 288 371 340 311 297 292 299 405 405 399 391 386 379 372 366 363
243 221 230 243 243 252 267 274 278 323 350 294 271 318 378 391 380 376 370 365 357 352 347 341 338 337 336
239 244 247 260 261 276 285 291 350 296 266 293 360 369 364 364 348 343 340 333 328 327 324 320 319 321 326
249 258 262 257 261 277 343 310 267 286 296 343 321 315 351 352 328 322 320 320 320 328 320 340 375 366 398
264 267 265 253 274 329 274 263 293 300 367 326 304 313 298 336 330 318 313 302 319 324 310 340 319 313 319
265 269 249 272 323 261 275 288 335 355 315 297 296 315 300 293 324 326 314 298 296 320 309 334 316 318 255
269 284 260 288 263 283 286 351 318 311 322 322 319 317 324 287 317 326 325 318 293 300 311 327 306 254 316
282 253 295 265 284 294 346 302 367 336 347 349 338 331 325 314 293 326 342 331 328 291 292 326 309 332 328

GFSFLT2_2pvu_pres_063.txt.gz
Presure
242 381 336 323 291 280 263 242 237 249 254 228 246 223 232 228 213 218 229 239 221 208 208 208 228 220 216
241 256 360 292 282 279 253 253 253 264 238 228 229 241 230 241 231 233 237 197 198 235 222 220 223 219 215
235 241 244 297 283 269 268 253 253 250 245 252 245 243 240 231 239 234 240 226 222 236 226 224 226 219 223
231 223 232 234 292 274 269 269 266 256 262 253 258 252 244 247 238 242 240 241 232 221 236 236 218 220 235
234 231 217 222 225 244 267 253 260 262 268 249 265 253 254 253 251 240 238 244 224 225 228 230 236 231 230
242 233 252 218 206 218 215 223 220 241 260 234 241 235 252 249 249 246 253 253 249 248 254 250 251 252 253
241 245 245 226 249 244 210 230 215 218 217 215 214 217 224 229 234 232 233 235 236 238 237 239 239 240 241
251 251 200 254 247 243 205 236 220 218 226 228 175 243 248 247 241 241 240 236 234 234 236 243 252 253 253
253 259 258 250 242 238 247 247 246 242 241 241 249 252 261 267 260 253 249 250 256 260 267 323 319 148 172
227 250 249 251 252 254 253 261 267 266 270 261 263 286 295 384 324 314 305 292 281 290 287 393 386 382 381
240 238 235 243 242 259 267 272 270 273 278 251 290 338 281 270 279 306 339 355 337 333 378 362 355 349 344
237 238 239 247 260 267 270 271 274 290 254 316 284 268 293 308 346 370 353 317 319 319 360 338 327 325 322
229 233 241 253 267 271 274 279 280 261 314 274 276 303 350 336 301 305 302 304 311 318 352 333 316 309 315
235 239 249 266 271 276 278 271 267 304 269 294 353 332 308 359 352 332 324 315 316 332 306 337 328 299 312
241 250 269 274 278 281 268 306 287 266 297 341 307 336 339 350 286 292 336 327 322 332 303 341 339 333 299
245 271 279 278 280 269 308 280 265 291 327 327 334 333 366 352 302 308 343 333 328 327 318 310 339 339 324
269 280 286 284 267 304 274 284 288 333 320 350 325 373 368 351 345 352 347 339 331 326 328 312 318 340 343

GFSFLT2_2pvu_pres_066.txt.gz
Presure
255 244 237 245 256 257 240 252 305 299 275 267 253 250 244 254 240 241 232 243 228 217 230 211 222 207 208
254 246 237 220 267 265 251 227 245 284 271 260 239 233 242 243 264 240 249 245 228 226 227 221 228 219 206
250 237 237 251 242 258 243 249 218 216 262 241 250 229 230 239 240 222 238 230 228 234 244 238 228 229 226
235 236 237 250 234 244 266 234 232 220 261 229 254 260 250 241 247 242 240 238 244 235 245 229 230 237 236
235 232 239 243 204 233 209 262 241 254 227 284 214 236 264 228 272 229 243 244 260 258 257 252 253 248 248
235 239 245 240 245 261 259 256 246 248 208 235 236 241 236 227 226 226 222 221 231 245 255 240 250 251 259
227 238 240 250 263 262 252 244 241 240 243 249 247 246 241 238 235 233 233 233 236 246 241 238 237 241 245
233 247 260 265 262 244 237 232 237 237 243 249 253 259 255 253 253 252 250 247 245 243 244 245 248 250 255
253 265 267 244 238 236 229 226 233 234 243 254 269 271 270 267 266 266 271 273 269 260 256 276 280 287 289
269 243 234 227 223 227 235 235 236 244 252 271 274 276 275 277 281 285 289 267 262 327 320 308 296 288 287
228 227 226 225 226 226 230 234 243 250 269 277 276 287 283 274 270 285 310 299 281 271 273 314 324 368 356
223 227 231 230 225 230 235 241 252 268 283 286 283 278 271 310 288 278 270 338 346 331 323 322 308 304 307
225 231 235 230 230 236 242 250 267 283 288 285 274 289 294 268 292 330 329 320 348 334 337 357 354 325 309
233 234 229 231 239 242 254 273 286 286 282 277 290 290 261 298 341 303 334 324 330 344 375 346 289 330 323
229 229 236 240 248 266 284 288 281 286 283 304 288 271 327 325 306 322 327 338 361 367 372 351 304 338 336
230 238 242 257 283 292 292 286 287 298 310 286 278 320 310 325 322 325 327 363 370 365 354 354 341 349 343
241 253 286 296 293 286 280 289 315 312 263 286 347 306 336 325 333 325 346 380 441 447 422 364 349 347 351

GFSFLT2_2pvu_pres_069.txt.gz
Presure
256 271 265 262 243 266 239 249 260 249 243 267 224 242 303 261 245 245 237 237 230 229 235 227 222 231 218
271 261 250 258 261 241 242 236 259 213 263 264 227 251 239 244 239 248 241 250 236 234 240 229 231 227 230
263 254 250 247 247 224 240 247 245 269 220 261 246 251 232 266 242 232 231 234 262 231 229 229 245 244 238
255 267 270 250 216 232 231 244 253 271 266 268 228 241 284 231 254 249 242 252 234 240 230 232 232 231 224
294 275 250 221 218 233 236 253 273 267 259 245 239 237 240 237 242 238 249 246 242 242 248 251 228 243 243
281 250 224 226 234 234 256 272 267 249 239 237 228 222 225 228 235 243 247 245 241 231 274 228 270 238 241
251 241 237 239 247 262 272 261 239 233 227 227 224 231 231 230 233 234 244 257 262 257 254 250 250 239 235
254 251 256 264 269 256 238 232 228 226 226 227 226 225 230 234 242 251 267 277 207 271 267 264 260 256 256
274 270 248 241 236 228 228 227 227 232 235 233 229 230 236 241 252 271 285 292 283 280 285 283 278 271 271
234 231 229 229 228 226 228 228 233 242 231 229 235 240 242 257 276 289 290 285 288 286 280 278 277 276 278
226 223 225 223 222 237 244 229 231 231 233 239 243 251 271 287 290 282 289 283 281 288 313 295 283 281 282
224 221 218 230 238 233 239 233 231 237 242 247 262 285 291 288 285 289 286 291 309 300 270 284 337 338 328
215 214 227 231 242 240 231 231 241 250 265 292 297 294 282 289 278 301 314 306 277 292 361 310 312 313 332
211 225 231 240 237 230 237 247 266 305 304 292 284 295 296 290 329 301 275 290 367 317 339 321 325 326 323
225 226 232 235 231 242 268 306 300 285 308 340 303 334 278 281 271 282 311 320 344 334 339 348 324 336 361
225 228 239 237 252 307 300 294 351 334 338 333 307 302 263 265 280 328 321 350 351 355 350 340 357 383 406
228 242 245 266 307 303 334 334 358 363 347 348 343 330 298 282 330 336 359 353 351 350 339 361 383 407 478

GFSFLT2_2pvu_pres_072.txt.gz
Presure
255 253 262 250 274 278 273 264 273 256 233 242 245 269 266 295 265 298 239 257 253 240 238 231 233 245 229
269 258 258 291 260 260 259 260 261 244 216 230 255 267 267 267 246 262 266 228 257 246 251 247 236 248 242
260 273 271 283 252 281 286 281 246 231 234 234 267 275 260 244 244 250 246 235 257 254 244 246 244 238 229
269 278 258 250 273 283 276 253 234 237 241 249 276 267 246 240 234 229 225 231 244 259 242 255 247 240 240
270 264 243 262 269 269 251 243 245 232 271 273 264 242 239 230 228 221 221 225 226 226 240 263 271 241 247
269 243 240 255 266 269 258 258 266 269 249 241 233 229 231 229 229 230 228 224 218 221 228 233 234 243 238
245 252 241 258 276 260 272 257 239 236 231 230 229 228 230 228 231 241 238 230 225 227 231 236 239 247 244
263 236 279 264 250 243 235 229 225 223 222 221 230 240 242 229 231 231 231 233 235 237 240 244 253 263 267
247 247 239 236 229 224 222 220 222 214 225 239 236 230 238 236 232 237 240 244 248 255 267 284 293 291 295
230 232 217 223 222 219 221 220 213 222 233 246 247 238 230 239 241 243 254 264 279 291 295 292 286 281 281
226 221 206 233 227 222 217 212 225 228 235 236 236 238 242 254 270 281 304 303 294 288 282 275 281 283 287
238 247 247 236 224 214 216 228 227 233 230 241 242 253 276 310 312 304 278 300 301 308 316 297 325 329 287
239 241 239 223 215 217 227 223 231 229 242 252 279 304 303 298 343 348 349 327 261 344 279 269 279 291 304
239 232 214 216 222 221 224 229 239 252 273 306 312 354 360 366 361 355 340 329 327 324 265 286 303 323 337
220 213 221 218 219 226 234 250 258 309 301 316 345 340 360 358 348 348 351 349 338 312 298 326 340 352 366
217 222 216 220 229 239 252 263 303 304 311 354 349 343 355 350 343 336 333 329 300 303 338 307 330 348 357
218 218 224 232 242 253 287 297 297 308 357 353 354 354 360 343 332 336 318 292 307 340 291 289 290 303 337

GFSFLT2_2pvu_pres_075.txt.gz
Presure
265 261 252 250 258 259 254 274 272 255 281 290 285 255 232 230 259 278 264 262 300 283 286 288 257 240 240
237 251 235 262 271 253 271 271 264 245 270 281 272 238 230 241 283 277 249 243 286 242 254 258 249 254 243
222 257 261 265 280 276 287 269 250 259 273 254 242 245 233 252 278 269 247 245 246 229 270 247 258 242 245
252 255 254 275 293 275 264 251 243 243 270 263 250 254 269 257 243 236 227 229 228 227 230 227 234 252 237
263 262 273 276 272 275 295 295 295 283 277 270 267 250 242 230 226 223 224 224 225 228 230 229 227 227 229
244 267 266 268 254 252 249 278 277 262 247 239 229 223 222 223 215 219 239 239 236 233 228 228 227 229 220
247 257 259 259 245 245 237 234 226 219 228 221 218 225 222 213 220 232 241 251 239 239 228 229 228 225 223
243 256 252 243 255 244 230 228 223 216 229 225 225 221 215 221 231 233 237 235 237 235 233 232 230 230 229
240 250 242 238 243 247 246 244 222 219 232 227 219 215 224 231 226 234 231 241 245 244 247 251 250 249 247
240 242 245 236 247 242 240 244 247 241 236 214 217 223 225 230 234 239 252 260 269 280 288 308 311 310 305
243 239 236 248 246 240 228 240 234 212 215 221 223 223 230 236 252 259 285 309 312 332 333 317 295 294 291
247 234 241 235 247 238 228 234 214 218 222 217 222 230 245 258 302 314 337 361 365 350 376 361 347 348 348
249 225 237 235 231 252 237 214 219 219 218 222 235 253 262 312 306 328 362 358 354 378 365 352 359 277 331
254 226 236 245 238 235 218 218 217 220 227 240 251 280 310 300 319 359 362 354 360 372 359 345 347 349 347
239 246 228 248 222 218 219 218 223 229 240 251 279 309 295 317 355 376 368 362 371 356 345 336 334 320 297
258 231 226 220 222 218 221 224 231 241 252 279 300 302 311 372 364 431 406 386 364 349 339 323 298 302 325
244 217 223 216 216 224 225 231 239 251 266 296 310 308 386 357 381 412 399 372 350 338 332 296 301 338 296

GFSFLT2_2pvu_pres_078.txt.gz
Presure
211 203 211 229 220 231 259 260 275 274 305 280 272 255 247 269 261 242 240 242 275 274 247 287 282 283 271
245 223 217 255 266 261 264 262 275 267 298 259 254 254 244 278 266 254 253 271 277 260 244 252 230 241 231
262 216 267 209 251 261 259 253 257 272 300 289 287 277 287 272 276 273 265 244 237 227 229 230 231 230 246
234 246 246 247 245 261 251 274 270 261 257 250 243 247 259 248 238 231 228 224 224 218 218 223 227 230 228
258 249 240 248 252 248 255 263 261 259 249 239 239 231 224 226 226 220 223 223 216 214 218 233 235 235 226
264 250 241 241 242 243 252 254 249 251 254 246 232 228 219 220 227 227 225 217 210 206 226 225 228 246 229
255 250 238 237 238 258 250 250 251 246 257 251 243 248 237 226 237 235 220 215 213 224 226 219 224 226 227
244 239 238 233 243 255 243 247 245 253 248 246 238 239 245 243 227 215 216 219 220 222 225 234 231 239 239
237 233 238 230 251 244 240 243 243 243 240 247 230 240 223 215 217 225 221 220 226 235 251 262 267 287 289
235 248 239 252 244 247 236 253 240 237 230 237 253 227 214 219 221 218 223 229 241 254 267 318 313 326 324
233 233 251 241 245 239 231 252 239 226 247 247 232 217 221 222 220 227 232 245 257 310 311 304 327 363 369
246 247 241 241 237 229 240 239 259 239 241 234 217 222 222 224 227 239 250 264 314 313 303 323 353 366 358
242 240 239 231 236 239 236 249 256 235 229 224 218 222 225 227 241 250 270 313 319 317 344 382 369 365 359
241 237 225 239 233 227 248 268 238 218 222 217 221 225 228 242 249 275 313 313 387 398 356 348 420 389 366
239 240 230 227 234 248 259 222 218 224 216 220 227 229 240 248 274 305 314 382 382 341 432 419 394 384 370
229 226 226 233 250 251 244 223 222 224 218 226 229 239 245 269 296 313 334 365 344 332 335 373 364 358 351
239 243 241 251 264 229 228 221 225 220 227 229 237 244 264 289 307 314 382 345 347 330 336 319 324 330 330

GFSFLT2_2pvu_pres_081.txt.gz
Presure
202 207 210 199 243 236 272 263 231 256 224 253 272 284 271 302 299 287 277 273 264 253 268 279 286 251 254
208 215 217 271 176 228 242 248 267 225 256 255 268 273 267 262 260 286 284 282 276 272 243 240 238 236 240
223 222 216 273 271 244 264 257 238 244 245 264 244 264 264 253 241 241 237 237 230 227 227 225 225 226 230
221 250 267 267 246 279 241 254 250 227 242 231 257 266 258 254 246 237 229 222 224 224 220 225 223 216 220
263 259 265 256 246 254 249 252 226 241 230 256 251 254 258 263 254 250 232 227 220 232 225 218 217 215 215
230 235 273 276 241 257 222 239 237 234 237 251 245 249 252 246 254 245 244 245 251 250 243 233 221 216 213
228 271 225 250 239 246 239 240 229 245 249 246 237 251 247 238 242 244 237 246 243 232 219 218 215 216 220
264 245 225 260 251 238 232 235 233 243 249 240 236 241 255 240 232 239 250 238 219 217 221 226 221 218 220
255 242 250 250 236 235 231 236 235 254 240 239 229 243 255 249 248 241 240 215 218 221 220 220 226 232 239
276 259 246 240 229 226 236 232 244 246 239 237 237 247 265 247 230 253 221 218 219 220 224 227 235 248 259
240 237 234 228 230 230 227 246 245 239 240 236 239 249 268 235 241 222 220 218 222 226 229 242 254 301 322
241 238 233 228 225 231 240 242 243 241 231 231 235 250 242 247 222 222 215 218 227 230 245 258 304 323 327
234 226 227 234 248 237 243 243 241 230 229 231 241 262 215 221 221 225 217 227 231 244 256 302 323 329 387
244 229 230 236 239 243 235 246 228 227 247 242 252 234 224 221 223 218 227 232 244 256 299 325 376 365 348
239 235 243 239 245 249 228 230 240 239 241 248 248 249 252 221 215 227 231 240 253 287 308 311 370 371 346
254 225 228 234 246 247 239 237 241 249 249 253 253 216 218 214 226 232 240 252 278 300 311 379 339 341 329
243 242 241 236 236 241 242 250 248 256 224 225 217 217 215 225 230 241 252 274 294 313 315 361 341 336 334

GFSFLT2_2pvu_pres_084.txt.gz
Presure
178 188 172 197 198 209 215 217 213 254 227 242 256 251 253 232 265 270 269 252 251 290 288 254 266 270 263
197 206 213 214 211 216 228 144 262 230 240 278 258 235 225 245 264 257 271 263 245 239 243 245 240 239 232
214 207 211 210 224 240 244 169 247 241 238 232 253 238 247 235 263 255 263 256 258 245 236 230 227 224 227
216 191 223 234 250 242 281 253 253 227 260 262 232 246 243 238 255 246 257 253 255 251 245 236 230 227 226
232 241 251 261 271 280 276 275 244 243 257 247 241 243 228 241 251 245 250 255 246 252 249 244 243 228 219
262 286 250 241 234 278 258 260 263 255 242 244 244 230 235 255 242 239 231 250 249 243 249 233 246 244 251
260 263 293 241 239 249 254 258 251 243 243 234 237 226 237 253 242 235 233 248 275 240 250 249 250 239 228
272 234 277 258 261 267 248 258 248 241 232 237 232 236 228 253 242 238 235 252 267 247 236 249 239 230 217
289 270 287 270 253 255 254 261 245 245 231 229 237 227 239 244 243 230 235 243 266 240 250 225 219 225 219
287 274 266 248 250 243 258 249 235 233 229 230 227 231 242 248 236 226 237 244 266 235 219 224 225 218 215
266 256 268 279 267 241 226 236 236 233 231 228 229 242 244 235 228 229 246 248 263 215 223 222 222 219 221
269 270 257 258 251 244 235 237 232 229 231 227 242 234 245 234 228 243 241 253 235 223 226 223 219 222 227
262 254 250 240 235 238 237 231 238 229 242 229 250 236 246 243 240 242 251 250 258 276 222 216 222 228 243
246 258 244 238 235 232 235 245 242 236 229 238 231 241 234 238 246 257 254 249 217 219 228 227 229 242 254
250 248 243 249 239 242 234 244 248 235 242 237 231 234 238 246 244 224 263 265 285 274 266 236 245 253 279
258 251 258 250 250 250 247 250 240 236 238 237 236 242 233 218 216 225 232 233 239 247 237 241 253 279 300
248 242 243 250 250 244 237 235 235 237 240 238 226 223 219 220 236 238 235 229 227 239 237 248 272 280 304

GFSFLT2_2pvu_pres_087.txt.gz
Presure
187 227 219 215 223 213 167 234 218 214 220 231 246 255 251 262 239 260 249 249 251 258 268 258 244 238 269
234 219 217 221 215 219 139 214 223 235 233 251 258 260 241 243 257 255 252 238 259 253 257 261 258 241 236
221 165 191 224 227 231 233 240 240 251 249 265 233 262 272 261 250 229 243 232 232 257 245 251 248 257 242
233 235 236 254 248 248 252 262 263 266 258 265 236 247 232 237 243 239 242 225 239 245 244 241 253 241 247
259 264 266 258 266 265 250 272 257 286 290 287 249 248 248 253 237 237 239 231 239 246 241 240 246 255 245
323 335 325 273 291 252 313 263 295 242 278 238 259 262 250 246 243 229 231 236 247 245 242 238 251 264 256
297 298 315 314 281 243 259 266 285 278 257 246 256 251 253 241 237 234 230 228 242 248 242 231 232 262 250
243 262 260 251 259 262 262 254 262 271 266 252 250 256 240 234 235 228 229 228 245 248 241 228 236 254 256
243 278 284 287 284 293 292 262 271 259 244 247 252 244 240 235 228 230 227 231 244 245 231 229 233 248 257
267 268 272 266 262 273 276 244 260 249 239 261 248 231 229 229 230 228 231 239 232 243 239 229 242 252 261
277 269 274 255 261 257 260 251 249 263 256 234 233 237 237 237 235 231 227 243 237 235 235 241 249 257 247
278 275 261 267 261 263 269 258 260 245 240 244 239 235 235 238 239 243 227 234 236 239 239 248 248 260 291
265 265 263 268 266 256 258 261 251 245 243 237 241 234 220 229 241 245 242 237 236 237 243 247 262 248 240
257 253 261 255 247 244 243 245 244 240 238 231 229 228 230 234 250 246 238 236 239 243 245 220 220 227 229
260 257 255 256 259 252 253 248 247 243 240 238 241 243 246 250 250 249 246 248 239 227 217 220 234 236 236
240 242 241 241 242 243 250 259 262 259 262 257 255 247 238 237 240 244 245 220 218 219 224 234 234 230 235
249 242 248 249 245 239 249 252 249 243 239 238 239 244 245 246 220 217 224 222 223 229 235 234 247 260 264

GFSFLT2_2pvu_pres_090.txt.gz
Presure
154 184 154 189 193 204 195 222 226 232 227 241 248 245 241 287 278 243 264 264 252 249 245 243 265 256 258
185 199 206 233 214 219 227 230 241 260 259 261 253 245 252 265 275 235 262 236 249 247 240 241 239 251 253
218 213 251 222 230 245 239 256 260 263 259 276 256 292 275 234 259 270 229 243 245 240 239 236 238 252 249
224 231 245 249 251 262 295 280 295 277 280 294 297 277 290 260 270 232 250 256 251 233 238 228 228 254 242
260 249 262 287 289 294 300 295 267 314 301 289 271 275 275 240 259 257 246 247 251 232 232 228 228 248 244
296 298 275 298 266 277 278 277 275 269 295 284 282 263 283 276 258 253 243 247 239 236 230 225 226 239 250
267 295 299 277 288 274 242 300 278 278 259 258 290 255 263 270 261 250 249 250 237 224 231 227 222 232 242
323 339 316 274 292 267 280 252 281 277 287 280 276 259 263 262 254 246 238 238 236 233 232 227 227 230 241
319 336 309 305 312 303 272 267 277 261 283 281 276 262 259 260 227 233 244 238 233 227 229 222 220 231 240
311 304 292 285 307 296 289 273 250 260 258 275 264 240 263 254 231 253 240 230 238 236 237 221 229 223 236
297 294 293 290 288 285 268 267 272 258 261 271 257 254 241 271 252 239 238 235 226 230 238 237 234 224 241
271 264 275 282 276 278 274 266 271 259 263 271 265 258 256 252 247 241 240 228 235 220 223 237 239 230 236
276 266 264 267 265 264 262 256 254 260 254 246 248 254 245 247 233 236 232 229 227 229 234 243 246 241 240
264 263 260 257 263 261 254 254 260 255 252 246 241 237 245 243 239 237 236 236 236 236 244 243 246 247 241
257 264 263 260 259 256 259 255 256 251 252 255 258 249 245 244 242 246 248 244 242 248 245 240 240 243 232
256 253 250 248 240 244 249 247 243 248 249 248 249 245 242 241 243 241 243 243 235 236 241 245 230 220 217
260 253 247 254 251 243 250 252 252 249 250 248 246 245 243 245 247 248 249 248 219 220 219 217 226 229 226

GFSFLT2_2pvu_pres_093.txt.gz
Presure
206 193 213 181 212 212 211 254 227 215 223 236 248 251 267 270 280 262 288 268 269 249 250 247 237 255 245
221 223 193 220 222 197 234 226 232 257 251 242 270 282 277 263 296 298 278 282 239 259 244 256 248 248 241
202 213 221 221 231 234 247 262 278 277 292 286 277 234 247 295 258 281 287 243 251 257 249 234 244 238 237
222 238 222 246 250 296 278 298 303 265 249 237 287 247 303 304 291 289 247 261 269 243 246 245 237 236 228
249 256 251 367 353 341 336 266 250 263 282 291 292 255 243 265 273 303 281 275 264 244 243 242 232 238 228
256 290 293 276 336 251 346 345 318 276 284 265 264 277 278 284 308 268 285 261 263 251 241 242 235 231 236
231 281 328 327 341 332 317 317 327 291 276 279 266 273 262 245 262 271 270 263 254 250 241 242 237 227 228
298 314 327 330 331 327 330 312 301 309 274 257 277 275 256 276 272 275 260 263 252 246 234 234 238 222 230
309 294 304 325 317 311 319 301 297 293 302 272 258 273 264 266 267 257 260 251 248 247 220 228 238 230 229
293 293 292 306 312 299 299 302 296 299 281 272 267 278 250 261 256 254 240 250 241 247 221 227 237 226 235
283 291 279 278 282 292 282 280 282 285 281 269 265 269 257 245 254 249 246 254 226 233 229 227 232 227 224
274 275 276 281 272 271 265 269 268 269 270 262 257 262 253 251 256 255 252 264 260 262 232 237 243 232 228
271 262 263 275 274 271 265 265 265 262 266 265 266 262 260 255 255 257 252 252 242 240 236 233 235 231 230
261 258 255 257 266 263 264 263 261 263 261 256 253 255 256 255 252 249 240 238 238 245 240 235 233 236 238
266 264 266 263 262 262 261 263 256 254 249 243 248 243 242 241 240 244 254 256 249 246 242 240 241 246 257
271 274 270 269 265 258 254 252 248 248 245 242 250 241 248 254 247 238 238 241 245 246 245 246 246 244 243
269 265 258 259 265 263 262 257 255 251 261 262 259 254 243 237 236 233 229 229 231 236 235 232 232 235 228

GFSFLT2_2pvu_pres_096.txt.gz
Presure
187 190 198 193 197 216 212 207 224 198 234 262 253 244 285 247 250 281 280 264 272 268 275 271 258 262 254
204 231 222 213 213 195 236 228 251 269 290 258 287 306 274 291 288 247 259 234 281 272 290 268 284 253 231
224 200 213 213 220 225 235 279 284 264 263 302 326 267 303 234 248 252 256 297 255 267 284 259 240 223 242
215 215 218 220 235 263 222 244 254 316 355 259 316 277 284 272 286 257 287 276 224 267 281 241 255 245 236
239 218 225 267 296 238 289 296 372 362 341 331 326 316 296 267 283 262 278 286 255 262 294 259 254 243 230
223 273 301 302 266 310 265 343 347 342 349 310 310 301 288 277 268 251 256 264 256 291 280 266 250 240 234
279 289 305 265 298 332 318 326 325 324 326 322 314 300 281 263 263 257 284 253 261 240 276 261 247 240 225
284 239 281 296 313 313 314 307 315 328 312 305 290 278 280 272 249 256 263 288 272 267 267 255 249 239 233
269 313 306 296 293 296 303 291 312 304 300 283 290 286 276 265 257 256 280 260 271 273 262 257 249 232 231
266 303 308 303 295 289 285 286 294 296 295 296 290 294 293 274 264 254 276 241 253 269 243 260 244 227 237
310 302 291 294 281 281 283 276 276 282 276 282 288 280 274 270 261 262 266 254 265 250 249 228 222 240 237
294 289 281 286 277 277 267 276 270 266 262 274 271 274 276 273 264 262 255 253 252 251 243 241 233 234 222
273 266 265 268 276 269 261 262 257 264 267 265 260 261 271 275 262 261 259 259 258 256 253 250 251 246 251
259 257 260 263 271 260 262 261 262 266 264 264 260 257 259 259 256 255 258 256 251 248 243 244 255 251 244
261 252 250 272 267 265 267 265 267 261 262 253 257 250 249 244 246 246 245 243 244 248 248 248 248 246 245
252 260 269 272 268 262 273 271 263 265 258 255 247 249 246 249 245 246 247 244 249 250 246 241 238 239 244
266 283 277 260 260 272 268 261 259 258 262 263 261 258 250 261 259 257 243 249 248 236 230 234 236 240 237

GFSFLT2_2pvu_pres_099.txt.gz
Presure
164 197 181 191 198 192 208 200 188 198 206 242 242 266 309 280 282 265 282 287 269 285 257 266 255 229 279
191 170 194 185 193 179 188 210 223 248 228 255 258 282 322 263 331 288 307 292 299 262 244 245 253 271 225
186 199 185 177 199 196 199 216 221 229 235 292 225 331 364 356 337 336 312 307 283 303 259 241 253 260 255
196 203 211 190 193 212 213 228 234 245 283 206 316 357 365 337 345 317 294 279 271 260 267 278 283 236 273
194 196 205 188 223 226 226 214 254 285 278 269 339 344 355 337 321 309 288 283 274 267 258 285 257 279 236
199 206 224 214 228 252 245 274 296 323 328 329 332 323 327 332 312 300 286 274 270 258 258 274 264 233 275
225 230 219 235 228 245 278 303 300 317 320 314 332 341 322 300 301 302 284 270 267 260 261 257 265 266 277
233 222 223 254 263 311 306 274 318 309 308 313 320 327 306 298 289 282 267 275 261 254 273 264 255 258 265
228 260 284 299 303 278 279 317 307 297 297 301 309 311 292 296 289 278 271 268 254 259 267 275 285 242 264
285 310 307 282 327 268 309 299 297 287 291 287 288 292 302 297 283 281 275 268 255 256 274 279 268 253 262
284 292 283 321 280 300 296 286 287 282 277 275 281 276 279 295 285 285 282 257 259 257 265 240 259 257 251
278 323 297 309 301 294 280 277 272 273 277 264 267 266 273 269 271 277 274 269 257 255 261 253 246 264 254
283 286 304 292 297 278 269 261 270 265 274 263 265 269 266 261 265 259 268 263 256 256 256 251 245 261 248
302 300 292 286 277 265 261 259 252 259 270 270 267 267 266 261 261 258 256 252 254 260 257 256 256 248 245
289 286 278 271 265 260 259 252 250 270 267 264 267 267 262 254 255 260 254 249 249 253 252 253 253 252 250
270 269 263 258 258 250 248 259 270 268 263 267 270 263 263 259 260 248 250 240 248 245 241 243 241 239 244
262 256 257 253 246 245 256 276 270 261 258 269 261 257 256 258 257 261 252 255 248 257 259 254 247 253 252

GFSFLT2_2pvu_pres_102.txt.gz
Presure
177 166 209 228 189 202 204 172 194 166 169 201 197 214 211 246 249 350 287 397 372 351 317 313 282 269 292
167 184 189 198 176 194 186 174 190 184 188 194 218 213 216 233 289 299 233 391 345 333 306 308 290 283 275
181 188 177 173 164 185 175 198 202 201 201 210 227 246 284 312 258 354 362 369 356 326 307 301 313 274 278
182 179 187 202 194 208 208 202 203 207 216 227 235 237 321 271 347 345 360 354 330 310 296 300 282 296 274
189 162 195 208 202 194 200 214 205 220 208 235 288 338 311 272 344 349 340 337 317 303 307 276 290 269 267
193 194 214 193 202 213 223 235 233 216 242 299 314 307 323 327 340 345 341 301 311 297 285 271 268 270 256
204 201 201 217 214 221 212 245 253 253 306 314 332 281 309 318 343 324 316 304 301 289 281 282 269 259 281
201 209 208 210 229 256 252 237 260 312 298 327 301 300 302 302 314 308 312 310 290 271 269 294 268 254 267
226 247 235 236 277 236 290 321 328 297 284 312 302 291 295 290 295 306 299 293 286 275 262 264 261 256 263
225 283 234 236 229 267 324 311 290 327 279 301 290 289 285 278 278 285 305 295 289 284 277 275 248 260 256
234 214 253 234 293 297 303 261 330 300 300 290 281 273 280 267 271 277 286 302 296 281 277 265 256 257 271
275 274 285 290 296 288 239 327 312 301 294 280 269 266 273 266 269 274 273 276 284 279 267 258 257 255 268
298 288 283 259 279 294 307 309 292 294 279 265 265 255 255 270 272 274 268 267 267 268 272 273 263 255 257
276 261 274 278 284 280 292 291 285 280 266 260 257 253 253 265 273 271 267 265 267 259 266 262 254 254 256
266 267 270 268 272 263 286 278 266 263 258 253 249 252 261 272 270 273 262 258 252 261 266 259 255 258 257
260 261 256 264 258 286 273 263 260 253 251 245 255 269 272 261 265 271 261 263 259 252 247 250 242 242 241
257 254 255 254 256 275 267 249 252 247 242 244 261 272 266 261 264 262 260 258 258 255 259 261 250 249 247

GFSFLT2_2pvu_pres_105.txt.gz
Presure
207 186 160 209 167 219 193 180 178 180 179 192 204 185 191 192 207 216 229 339 316 335 385 405 356 335 317
211 207 197 224 196 202 176 155 226 181 194 191 192 209 190 214 208 247 239 288 345 370 380 385 337 314 303
171 197 192 202 157 192 196 216 203 193 171 192 193 210 192 222 261 269 349 350 280 397 358 339 321 313 300
203 203 192 175 214 199 193 219 194 215 176 184 209 201 222 227 290 245 327 304 363 374 356 351 329 303 298
195 182 199 183 190 187 210 211 192 173 203 198 210 228 221 245 331 300 333 340 368 342 338 320 314 295 296
179 219 195 216 198 195 193 214 197 192 214 206 217 236 279 335 304 329 318 339 329 332 315 308 288 307 256
183 203 188 211 187 196 181 209 212 195 222 202 215 239 314 339 311 320 313 313 316 311 314 313 293 281 270
177 186 205 197 197 202 216 192 211 205 229 228 239 285 326 289 305 303 301 302 308 316 309 287 284 278 284
222 206 198 214 198 197 205 203 231 223 227 281 275 305 300 280 305 291 291 291 301 297 310 280 265 270 273
192 190 193 197 207 223 219 203 237 268 285 281 294 292 318 311 294 284 277 272 286 310 300 290 286 270 267
225 227 241 263 276 274 277 318 286 276 295 292 297 320 308 300 289 279 272 266 275 291 303 292 291 263 271
277 298 286 295 277 303 300 290 266 287 285 291 302 305 293 290 273 273 267 263 266 271 281 299 283 281 284
304 279 284 287 282 294 280 269 273 276 282 278 302 290 289 273 263 263 252 267 273 271 266 277 275 281 270
278 284 277 278 266 274 265 266 268 273 271 277 289 282 277 264 259 254 247 260 273 268 266 265 266 272 274
277 279 274 263 267 266 263 260 266 261 263 286 275 267 263 255 251 247 250 258 268 267 266 260 265 261 266
276 268 272 266 270 261 257 250 259 257 253 273 266 256 252 251 245 250 263 272 261 274 262 259 252 254 263
259 271 257 265 259 252 247 251 251 252 253 262 258 246 247 240 247 244 267 265 258 265 262 262 258 253 251

GFSFLT2_2pvu_pres_108.txt.gz
Presure
195 180 181 200 192 179 194 193 171 196 169 167 225 217 188 185 207 176 173 207 202 215 223 269 353 374 410
176 207 178 189 171 170 191 183 190 207 202 210 192 195 151 179 179 197 206 210 213 223 227 238 400 391 411
181 185 185 176 191 196 194 194 187 184 200 208 195 179 190 206 193 197 192 209 212 214 227 356 394 378 359
194 195 199 159 202 195 197 187 198 200 180 190 202 209 170 196 185 214 200 215 205 222 341 372 369 384 343
189 180 206 214 184 192 179 205 203 215 197 206 202 193 200 195 220 202 217 218 292 320 277 348 355 356 330
179 189 178 195 211 194 188 216 199 199 186 195 190 198 214 205 208 215 219 242 300 322 328 328 344 331 315
187 204 183 212 219 179 184 210 207 188 210 199 212 216 210 223 210 222 234 303 308 316 315 319 326 322 304
194 213 185 221 195 199 210 203 188 203 211 216 216 220 241 231 248 296 292 324 317 305 302 313 312 318 298
204 207 195 206 188 191 203 185 203 201 199 205 253 260 269 313 294 296 281 317 309 295 295 284 301 311 295
220 206 209 221 211 254 283 283 252 244 268 303 267 307 304 313 289 281 302 316 294 276 282 278 306 297 283
320 266 262 281 254 264 282 215 256 281 223 227 304 297 290 286 275 291 284 303 285 271 276 270 306 297 293
252 249 247 233 219 224 217 225 282 302 230 296 286 289 280 274 281 279 300 284 278 273 262 267 278 296 275
239 266 228 228 290 228 284 286 294 284 284 285 279 277 267 270 273 289 276 282 265 268 258 264 269 276 286
292 279 291 301 289 293 291 293 278 276 277 271 268 266 266 272 271 279 272 267 255 254 244 259 264 264 275
278 287 262 270 281 291 285 263 268 265 262 263 260 256 261 258 276 267 267 257 251 249 243 250 264 262 263
292 282 263 270 283 279 269 265 261 264 253 261 253 250 252 249 260 258 252 249 246 244 240 248 259 264 264
288 273 273 269 268 264 259 272 262 253 262 252 246 248 246 248 260 254 243 245 244 239 244 262 255 268 259

GFSFLT2_2pvu_pres_111.txt.gz
Presure
188 169 191 184 193 178 194 198 202 184 192 187 189 176 191 207 221 183 190 212 218 205 189 215 216 229 226
161 198 174 182 194 194 181 168 193 179 203 210 196 186 167 221 225 179 191 192 179 200 216 175 228 230 284
217 216 204 206 204 186 207 201 204 198 210 190 204 181 207 219 196 195 189 210 214 202 209 208 241 332 297
195 187 204 212 192 206 174 189 195 182 186 185 196 208 214 207 196 186 204 214 206 223 224 241 282 297 295
222 214 193 201 187 232 199 205 220 202 178 221 198 190 196 223 178 215 215 222 194 226 255 295 302 319 343
184 168 173 187 196 225 183 221 181 212 181 201 210 205 173 211 207 224 194 216 239 266 222 322 289 325 337
183 183 215 200 210 197 202 212 193 195 199 196 200 197 202 216 216 215 195 252 268 302 227 295 300 318 345
203 201 200 217 203 203 189 187 208 212 214 242 221 216 214 234 239 258 236 259 217 242 294 298 314 306 301
205 242 246 240 243 252 251 238 255 210 208 267 279 242 241 265 247 206 206 223 294 267 298 292 305 303 293
261 281 207 251 252 246 255 255 221 231 249 250 245 281 231 207 207 220 298 239 289 285 275 276 305 294 283
259 229 295 251 255 253 237 228 226 239 236 208 202 212 256 282 215 253 236 283 282 271 275 292 284 280 273
333 307 290 266 286 261 262 262 249 262 229 292 266 275 246 263 284 281 277 272 273 267 280 300 285 273 262
363 328 317 293 303 288 270 271 280 291 266 279 268 296 269 284 275 273 267 270 260 275 291 281 273 267 254
333 334 312 301 296 297 275 276 276 302 292 300 286 267 281 270 266 264 262 253 269 268 278 276 261 256 248
324 325 324 319 297 283 287 296 268 291 285 272 283 276 265 262 260 255 251 259 258 279 270 264 250 248 243
329 316 308 290 285 275 278 293 275 275 269 283 269 259 259 255 252 250 248 252 260 264 267 257 245 243 241
309 311 290 292 288 290 279 266 258 264 273 267 253 258 255 253 246 247 246 244 261 251 251 249 244 240 242

GFSFLT2_2pvu_pres_117.txt.gz
Presure
203 205 203 205 201 196 174 179 194 183 212 202 187 215 224 185 189 199 204 205 215 198 215 197 199 209 222
221 170 165 187 199 176 165 180 188 215 187 183 200 231 221 202 213 214 187 229 211 221 222 215 205 219 216
205 180 201 205 208 190 195 213 212 209 192 199 203 204 215 198 212 220 213 172 205 204 207 200 219 223 220
202 213 206 209 204 203 211 213 202 212 215 210 210 196 197 206 196 210 177 207 218 204 208 220 225 231 220
207 215 217 208 212 221 211 213 222 201 203 193 202 197 196 199 203 200 206 217 223 221 223 232 230 213 242
182 220 201 203 224 225 204 234 238 204 202 221 200 205 223 218 223 216 215 205 231 232 220 226 203 235 248
197 253 220 265 265 228 264 227 257 223 221 213 222 200 197 204 225 239 225 207 225 214 235 247 214 234 224
266 256 259 256 255 275 266 275 274 250 239 235 248 228 212 218 217 226 211 226 257 233 227 246 249 199 232
277 304 361 468 426 412 385 418 372 332 316 315 271 249 263 248 238 257 245 257 240 232 245 244 234 250 235
331 450 504 477 456 410 528 360 358 326 338 321 310 312 263 266 274 257 272 263 233 244 281 237 240 267 283
525 507 486 465 445 463 397 391 407 356 315 301 306 305 291 284 272 270 259 259 262 265 256 276 277 290 297
504 480 455 438 425 409 400 385 339 325 341 331 344 306 296 292 284 272 271 268 260 266 274 271 282 304 304
476 455 437 436 431 434 383 396 350 340 323 320 298 299 307 330 336 315 290 296 275 269 269 272 291 306 277
452 430 418 404 396 395 383 362 390 326 311 289 299 290 283 281 283 299 288 276 268 269 287 292 303 279 275
432 423 422 416 417 385 380 356 333 324 307 300 307 294 289 292 311 294 275 267 277 280 278 291 276 265 267
416 416 414 404 401 399 376 328 320 317 340 306 298 299 301 296 278 275 270 269 278 269 285 268 261 266 255
410 409 406 401 395 388 361 367 337 342 318 313 304 295 294 270 265 262 276 272 271 277 267 255 261 256 251

GFSFLT2_2pvu_pres_120.txt.gz
Presure
183 200 206 204 206 181 213 186 169 192 181 176 175 197 201 198 200 198 207 210 210 154 195 213 209 228 207
196 223 215 181 185 185 182 194 211 196 203 203 210 214 204 202 191 223 216 200 192 223 192 192 197 213 204
183 218 206 208 201 179 213 207 213 215 213 212 215 220 211 196 204 206 209 206 217 204 213 207 208 208 221
209 210 152 184 209 214 211 222 224 221 216 217 213 208 211 206 207 201 193 202 195 189 183 200 211 220 234
180 186 190 214 211 220 229 253 248 248 254 257 256 255 252 239 255 239 251 257 228 214 180 217 231 231 210
179 188 189 257 203 254 253 213 253 236 285 253 244 240 261 262 257 246 239 242 251 228 231 184 183 196 201
185 163 189 210 238 245 236 259 285 274 269 269 282 293 301 332 331 302 262 256 277 252 254 227 221 216 224
219 196 222 194 273 271 273 281 286 293 310 319 355 362 354 363 336 339 306 299 278 244 249 235 225 234 167
196 246 216 210 263 275 281 292 326 519 463 442 375 397 411 380 343 343 330 302 285 265 252 250 258 260 246
209 200 250 270 282 294 308 518 494 487 437 382 380 365 349 393 301 350 306 325 294 294 293 257 254 259 244
245 252 275 287 304 372 515 478 483 477 495 446 366 342 305 308 290 285 287 303 316 312 299 282 270 259 259
194 274 288 307 477 515 495 458 471 394 404 444 368 326 303 302 266 284 283 278 270 281 292 281 273 270 268
210 286 306 348 503 481 438 446 417 437 403 397 324 320 310 322 296 272 284 273 268 266 286 285 277 276 265
290 296 315 503 480 457 447 423 415 392 410 342 339 317 316 304 272 274 260 262 266 334 325 317 293 286 276
293 311 463 475 460 433 429 417 439 380 383 345 337 311 319 329 285 300 279 279 282 275 280 280 273 268 272
304 368 476 452 445 439 427 418 415 393 358 323 322 304 279 288 282 275 269 273 282 293 287 272 267 269 268
314 482 450 446 437 421 411 400 391 373 336 336 303 303 291 284 268 271 282 287 277 275 264 270 266 265 279

GFSFLT2_2pvu_pres_123.txt.gz
Presure
245 181 214 186 176 187 194 202 151 224 200 213 184 173 203 210 212 211 215 211 204 205 212 197 209 205 166
190 213 230 230 232 231 235 227 195 144 168 178 173 183 194 195 202 208 219 225 224 221 217 211 200 206 208
227 225 210 147 196 197 214 147 164 172 194 183 189 189 221 238 215 205 263 269 223 214 253 251 207 239 246
217 204 205 209 218 188 159 191 195 213 205 171 215 242 221 224 228 243 220 247 256 233 270 247 249 248 236
201 223 189 151 160 157 173 191 191 181 205 129 224 207 215 229 244 261 264 277 268 275 266 276 280 278 275
229 231 160 153 257 192 201 191 191 212 220 189 215 238 251 279 270 275 271 268 281 272 284 279 279 279 314
163 161 155 158 190 206 217 222 183 209 191 206 254 280 246 280 282 285 278 276 292 291 304 321 315 288 276
157 153 151 182 183 183 212 236 207 188 230 203 293 291 292 301 301 311 379 343 364 378 356 316 285 266 268
155 153 219 214 233 233 232 192 209 201 249 305 306 314 319 472 439 385 402 403 392 371 359 364 301 289 250
157 158 159 158 227 227 224 232 217 229 295 319 333 516 497 527 446 411 384 337 319 327 292 296 288 263 260
148 154 185 226 227 196 234 225 277 300 329 527 503 489 477 451 362 341 372 326 298 285 309 290 292 293 308
151 181 230 230 226 210 267 237 296 318 520 494 450 452 441 404 351 332 308 319 339 302 287 292 305 335 298
162 160 204 215 242 260 273 288 309 484 470 490 429 415 413 343 344 302 314 309 294 309 301 277 304 282 272
155 230 236 239 254 266 279 304 342 469 470 449 419 399 413 372 322 310 302 288 291 276 277 281 266 276 260
164 224 237 253 263 278 291 327 469 459 443 435 422 398 394 345 324 317 300 279 275 286 277 272 258 272 278
227 244 253 265 276 285 319 476 457 435 430 411 388 386 364 333 301 298 286 275 280 265 266 273 269 279 315
250 252 260 270 277 311 331 460 452 423 421 401 365 387 337 307 297 290 279 286 280 261 269 273 275 289 281

GFSFLT2_2pvu_pres_126.txt.gz
Presure
195 206 248 199 139 186 220 240 236 184 224 211 192 195 209 180 209 170 202 217 202 227 200 201 226 216 229
247 226 216 247 240 239 186 227 226 213 200 214 216 217 171 163 190 185 219 192 212 221 228 250 238 227 216
248 237 244 235 227 223 209 212 175 217 217 201 155 224 208 162 246 247 215 215 184 217 204 216 208 224 267
213 232 233 215 224 221 217 217 209 221 160 158 194 168 185 184 206 219 207 219 221 216 219 224 226 246 271
228 209 222 219 208 221 217 217 218 216 155 145 154 179 172 165 222 206 193 221 229 236 223 228 240 279 274
155 178 171 204 212 215 224 150 163 154 151 154 232 193 237 239 203 201 241 244 238 284 223 296 285 280 271
220 204 201 216 228 232 184 151 148 152 161 154 217 233 229 222 222 224 217 233 276 250 305 302 295 289 285
221 231 250 253 219 190 208 181 158 158 155 201 233 198 216 216 214 268 291 302 320 324 450 412 347 333 345
238 257 204 206 212 219 218 244 164 156 211 165 236 213 229 230 281 303 307 337 495 497 421 378 352 355 300
202 208 217 220 239 240 143 229 237 215 201 242 226 237 243 281 307 320 530 485 454 436 439 367 369 341 308
212 223 238 237 237 235 215 191 222 173 205 238 246 258 290 317 328 503 479 464 450 368 359 336 334 328 306
234 229 234 232 232 230 234 160 197 161 241 252 263 288 305 332 464 474 457 462 390 354 354 343 340 309 299
230 223 230 215 214 219 192 231 183 245 253 267 284 291 328 347 476 439 439 402 357 338 333 307 302 303 306
226 222 236 203 214 169 219 178 153 253 264 283 292 320 328 449 461 402 356 349 342 325 293 309 279 289 260
251 231 208 172 219 219 183 267 270 273 277 282 320 326 467 424 422 372 346 345 314 306 292 289 294 290 286
224 268 279 180 177 249 305 320 298 299 303 314 310 468 447 411 404 349 337 314 313 321 309 303 295 283 275
230 203 255 170 164 323 303 290 296 298 311 321 453 427 419 402 379 338 322 314 291 300 300 296 283 270 261